SCP
0 0 0 0 0 0 0 0 0 0 0 0 0 0 1 1 1 0 0 0 1 1 1 1 1 1 0 0 0 0 0 0 0 0 0 0 0 0 0 0 0 0 0
0 0 0 0 0 0 0 0 0 0 0 0 1 1 1 0 0 0 0 0 1 1 2 2 1 0 0 0 0 0 0 0 0 0 0 0 0 0 0 0 0 1 1
0 0 -0 -0 0 0 0 0 0 1 1 1 0 0 0 0 0 0 0 0 0 0 1 0 0 0 0 0 0 0 0 0 0 0 0 0 0 0 0 0 0 0 0
0 0 -0 -0 -0 -0 0 1 1 0 0 0 0 0 0 0 0 0 0 0 0 0 0 0 0 0 0 0 0 0 0 0 0 0 0 0 0 0 0 0 0 0 0
-0 -0 -0 -0 0 1 1 0 0 0 0 0 0 0 0 0 0 1 0 0 0 0 0 0 0 0 0 0 0 0 0 0 0 0 0 0 0 0 0 0 0 0 0
-0 0 0 1 1 0 0 0 0 0 0 0 0 0 0 0 0 0 0 0 0 0 0 0 0 0 0 0 0 0 0 0 0 0 0 0 0 0 0 0 0 0 0
0 0 1 1 0 0 0 0 0 0 0 0 0 0 0 0 0 -0 0 0 0 0 0 0 0 0 0 0 0 0 0 0 0 0 0 0 0 0 0 0 0 0 0
0 0 0 0 0 0 0 0 0 0 0 0 0 0 0 0 0 0 0 0 0 0 0 0 0 0 0 0 0 0 0 0 0 0 0 0 0 0 0 0 0 0 0
1 0 1 0 0 0 0 0 0 0 0 0 0 0 0 0 0 0 0 0 0 0 0 0 0 0 0 0 0 0 0 0 0 0 0 0 0 0 0 0 0 0 0
0 0 0 0 0 0 0 0 0 0 0 0 0 0 0 0 0 0 0 0 0 0 0 0 0 0 0 0 0 0 0 0 0 0 0 0 0 0 0 0 0 0 0
0 0 0 0 0 0 0 0 0 0 0 0 0 0 0 0 0 0 0 0 0 0 0 0 0 -0 -0 -0 0 0 0 0 0 0 0 0 0 0 0 0 0 0 0
0 0 0 0 0 0 0 0 0 0 0 0 0 0 0 0 0 0 0 0 0 0 0 0 0 0 -0 0 0 0 0 0 0 0 0 0 0 0 0 0 0 0 0
0 0 0 0 0 0 0 0 0 0 0 0 0 0 0 0 0 0 0 0 0 0 0 0 0 0 0 -0 0 0 0 0 0 0 0 0 0 0 0 0 0 0 0
0 0 0 0 0 0 0 0 0 0 0 0 0 0 0 0 0 0 0 0 0 0 0 0 0 0 0 0 0 0 0 0 0 0 0 0 0 0 0 0 0 0 0
0 0 0 0 0 0 0 0 0 0 0 0 0 0 0 0 0 0 0 0 0 0 0 0 0 0 0 0 0 0 0 0 0 0 0 0 0 0 0 0 0 0 0
0 0 0 0 0 0 0 0 0 0 0 0 0 0 0 0 0 0 0 0 0 0 0 0 0 0 0 0 0 0 0 0 0 0 0 0 0 0 0 0 0 0 0
0 0 0 0 0 0 0 0 0 0 0 0 0 0 0 0 0 0 0 0 0 0 0 0 0 0 0 0 0 0 0 0 0 0 0 0 0 0 0 0 0 0 0
0 0 0 0 0 0 0 0 0 0 0 0 0 0 0 0 0 0 0 0 0 0 0 0 0 0 0 0 0 0 0 0 0 0 0 0 0 0 0 0 0 0 0
0 0 0 0 0 0 0 0 0 0 0 0 0 0 0 0 0 0 0 0 0 0 0 0 0 0 0 0 0 0 0 0 0 0 0 0 0 0 0 0 0 0 -0
0 0 0 0 0 0 0 0 0 0 0 0 0 0 0 0 0 0 0 0 0 0 0 0 0 0 0 0 0 0 0 0 0 0 0 0 0 0 0 0 0 0 -0
0 0 0 0 0 0 0 0 0 0 0 0 0 0 0 0 0 0 0 0 0 0 0 0 0 0 0 -0 -0 0 0 0 0 0 0 0 0 0 0 0 -0 -0 -0
0 0 0 0 0 0 0 0 0 0 0 0 0 0 0 0 0 0 0 0 0 0 0 0 0 -0 -0 0 0 0 0 0 0 0 0 0 0 0 0 0 -0 -0 -0
0 0 0 0 0 0 0 0 0 0 0 0 0 0 0 0 0 0 0 0 0 0 0 0 0 0 -0 -0 0 0 0 0 0 0 0 0 0 0 0 0 0 0 0
0 0 0 0 0 0 0 0 0 0 0 0 0 0 0 0 0 0 0 0 0 0 0 0 0 0 0 0 0 0 0 0 0 0 0 0 0 0 0 0 0 0 0
0 0 0 0 0 0 0 0 0 0 0 0 0 0 0 0 0 0 0 0 0 0 0 0 0 0 0 0 0 0 -0 0 0 0 0 0 0 0 0 0 0 0 0
0 0 0 0 0 0 0 0 0 0 0 0 0 0 0 0 0 0 0 0 0 0 0 0 0 0 0 0 0 -0 0 0 0 0 0 0 0 0 0 0 0 0 0
Wind_Speed_500mb
20 13 13 10 7 3 4 6 5 5 14 11 12 15 21 19 20 11 18 25 30 36 34 39 46 40 44 54 51 51 52 55 54 56 64 57 51 49 50 51 53 56 61
30 28 34 22 13 8 11 12 9 15 12 18 13 13 24 15 9 7 14 23 31 29 32 26 32 41 49 48 50 53 48 49 55 57 59 59 61 53 49 50 49 49 51
31 24 38 33 30 20 23 15 15 11 21 20 18 18 20 17 11 23 19 15 20 10 18 27 31 42 45 45 45 45 51 50 45 52 59 62 63 63 58 57 54 54 52
30 23 24 14 18 16 21 23 23 35 29 32 35 32 25 17 10 24 16 8 16 18 24 35 42 41 47 45 45 42 52 47 52 58 60 59 61 61 61 63 63 62 58
27 27 18 16 23 23 28 27 25 29 32 37 43 45 34 26 18 22 24 26 33 32 39 49 46 48 50 53 57 45 45 43 53 57 64 72 77 77 72 69 66 67 68
27 34 27 24 37 34 33 30 29 34 37 39 42 41 39 35 32 25 18 22 31 40 45 50 48 47 51 46 45 41 41 43 49 58 68 76 76 79 78 75 76 78 72
30 35 31 26 28 29 31 32 32 29 27 33 38 33 23 21 15 32 30 22 43 48 39 36 37 49 56 28 34 38 41 51 59 63 67 75 73 66 70 68 64 62 53
30 35 27 21 24 18 17 19 20 16 10 18 22 17 22 16 11 34 21 38 45 31 39 44 53 47 38 32 38 48 57 68 71 73 71 85 63 51 50 54 52 48 46
30 31 32 22 15 17 13 10 3 14 16 13 14 16 9 8 39 6 31 45 38 32 43 44 44 43 37 40 50 59 66 73 84 70 53 50 46 49 49 47 50 50 51
30 27 26 21 16 13 5 13 15 11 7 9 6 14 8 11 13 24 32 47 42 45 40 37 38 34 39 47 63 73 75 76 69 56 55 55 52 47 48 50 48 50 53
28 24 19 20 12 14 14 17 11 8 12 13 15 18 18 12 12 21 30 56 50 41 36 41 43 53 60 70 65 80 75 65 64 59 51 53 57 56 50 50 51 50 54
30 22 20 17 17 15 16 11 8 9 12 16 18 18 13 19 22 27 36 41 48 52 46 41 45 54 57 65 74 77 67 64 56 56 49 50 50 48 46 48 52 52 54
30 28 25 22 21 21 14 7 10 15 17 20 23 20 14 18 21 20 27 38 48 51 52 46 50 49 61 73 78 79 66 62 51 48 50 51 53 47 46 55 57 56 62
27 27 23 25 25 16 9 8 9 13 16 22 23 21 22 19 17 18 30 36 47 51 58 45 66 64 69 73 85 74 69 62 52 51 54 56 53 51 52 55 53 64 67
35 31 27 25 19 14 10 11 12 17 21 20 23 27 26 23 20 28 32 30 36 38 58 60 62 69 67 74 81 78 74 62 56 52 52 53 50 46 46 47 55 57 57
41 36 28 21 17 15 12 11 17 19 21 22 23 27 30 31 31 35 36 36 35 39 41 60 67 73 74 81 86 85 79 71 63 56 52 47 42 40 43 48 48 48 45
44 33 26 23 22 18 15 16 18 22 24 21 25 29 32 35 38 40 42 40 43 48 52 65 64 79 83 88 91 88 79 79 72 55 47 48 48 45 41 44 44 47 51
46 36 30 26 23 22 21 20 25 27 25 28 30 29 36 39 41 45 48 46 48 50 54 60 66 83 87 89 90 92 88 84 78 53 45 50 53 48 49 46 43 48 53
49 40 34 29 26 27 27 26 22 21 28 30 24 26 33 40 46 50 49 48 47 51 52 57 70 88 93 94 92 88 89 83 72 60 56 54 64 59 47 37 40 49 56
48 40 34 31 30 29 29 28 31 30 29 22 20 28 37 46 51 49 47 47 47 52 60 62 77 92 95 95 90 90 97 89 90 73 74 63 69 58 35 32 43 49 61
45 37 37 38 34 30 29 26 26 24 23 27 28 34 41 44 49 49 47 45 44 48 53 62 75 89 90 96 92 87 84 89 86 78 83 73 76 66 37 30 42 56 64
47 45 43 40 35 34 30 26 26 28 26 28 32 36 42 45 47 48 45 43 40 43 48 57 69 79 85 81 81 81 81 87 80 76 80 80 81 71 39 17 48 60 58
53 48 45 38 36 36 33 29 22 23 23 26 30 39 45 47 47 47 44 43 42 38 38 50 58 70 82 77 75 77 75 76 69 76 68 78 79 76 26 18 48 51 48
55 49 44 36 31 35 26 20 17 19 17 24 34 43 45 45 48 48 46 42 44 46 43 50 51 62 74 75 68 66 69 73 73 69 49 74 83 75 17 32 41 46 50
55 50 44 38 32 35 25 20 19 18 17 27 38 40 43 45 47 50 50 49 45 41 43 45 50 55 71 75 67 68 68 74 85 71 66 65 75 80 25 50 49 52 52
56 47 42 36 33 30 26 25 25 21 20 28 35 42 46 44 44 47 51 51 49 46 47 50 57 62 73 79 73 65 57 62 70 53 74 63 65 74 36 56 59 57 57
Wind_Direction_500mb
182 190 206 228 231 128 72 358 346 276 321 337 288 269 291 244 275 277 320 303 310 306 307 325 325 329 327 333 332 331 327 320 321 325 324 318 313 306 299 292 286 285 285
182 196 203 213 207 233 281 249 278 272 305 290 276 232 235 244 258 304 336 322 306 309 324 320 326 328 329 325 326 320 320 315 317 319 319 318 317 306 302 295 289 285 286
192 198 208 203 212 223 233 240 226 231 252 254 255 262 261 258 208 349 339 352 333 325 317 325 329 324 323 323 323 324 313 317 318 316 316 315 315 310 308 304 301 294 286
193 202 198 189 185 219 233 242 242 241 255 256 259 267 266 217 282 330 337 315 306 296 309 318 320 314 314 314 324 323 313 318 321 321 318 318 317 313 309 305 301 295 290
192 199 177 167 222 237 228 244 254 259 266 274 279 285 295 299 296 322 297 296 306 305 313 319 320 316 313 315 322 327 323 311 315 313 316 317 317 316 311 307 306 302 292
189 171 199 218 225 233 238 250 269 277 282 293 302 305 306 294 290 300 304 295 302 318 321 323 317 311 319 330 338 326 318 314 314 310 308 307 309 310 309 309 308 305 300
191 185 208 223 234 243 251 264 271 283 304 313 316 317 336 310 241 347 318 330 333 338 348 342 343 336 337 347 326 324 315 316 317 314 311 313 311 309 304 305 304 301 298
195 192 221 226 245 262 272 269 274 296 341 30 13 13 3 44 258 321 309 333 350 355 344 344 333 349 349 349 335 320 314 314 316 316 315 315 316 316 317 316 313 308 299
199 199 217 230 246 275 267 305 141 102 89 58 24 19 10 337 330 256 314 339 358 340 341 350 3 3 350 337 329 323 318 315 314 316 321 325 323 319 319 317 313 311 303
206 197 215 241 259 266 180 136 112 92 82 61 31 19 22 343 335 318 309 334 341 339 359 4 3 353 340 329 323 322 323 320 323 327 321 322 320 320 316 313 312 310 308
189 192 209 237 193 167 144 128 114 70 33 18 13 3 3 1 337 333 326 333 336 357 4 7 354 343 333 325 330 329 331 332 326 326 322 317 316 317 318 316 315 312 309
191 194 196 174 152 137 138 137 94 56 37 25 20 10 8 4 350 341 335 343 340 348 352 352 339 332 327 330 331 336 331 332 332 331 333 328 324 319 317 314 316 315 313
180 177 167 151 143 145 139 93 53 35 18 10 16 16 350 356 339 348 354 342 341 342 344 351 343 341 337 331 337 336 331 333 332 334 332 324 317 312 311 315 316 314 314
181 168 155 145 146 149 122 69 42 38 24 14 16 23 20 15 19 360 354 349 346 344 341 350 343 346 338 334 335 337 341 339 336 332 329 323 316 307 305 313 316 314 317
167 162 158 148 145 142 114 76 46 40 37 29 24 25 29 22 12 10 6 355 356 351 332 338 344 349 342 336 345 349 348 349 345 343 338 334 327 311 312 315 316 318 323
162 156 154 147 144 123 95 67 52 43 40 43 37 33 32 33 24 17 12 3 358 351 333 341 344 349 347 345 350 349 350 351 351 346 344 345 336 327 319 318 320 323 328
154 156 156 148 139 122 92 63 57 56 58 56 40 43 38 25 18 14 9 3 1 359 343 340 338 349 349 347 350 351 357 357 355 350 0 357 355 348 343 334 328 329 326
152 158 151 141 121 100 89 77 71 66 59 50 40 36 24 16 14 10 6 4 359 357 353 341 342 353 353 351 352 351 355 359 358 360 1 6 358 351 349 335 327 328 329
146 148 147 131 110 96 91 85 72 62 65 58 45 23 17 11 10 5 2 359 356 358 0 350 349 356 354 353 351 348 353 356 0 358 2 360 0 356 345 342 343 332 328
151 148 133 118 108 100 93 70 68 64 70 54 36 23 17 12 6 4 1 358 354 0 357 355 353 352 354 352 352 349 348 352 351 359 357 0 358 358 351 348 345 332 332
145 137 129 121 110 105 89 84 82 74 57 54 48 24 14 7 8 8 5 5 3 352 354 358 359 353 355 354 354 349 349 348 349 356 350 1 2 3 360 360 340 339 337
129 125 117 108 108 99 94 87 76 58 42 35 21 9 4 2 5 8 11 13 8 4 5 5 1 2 2 356 354 354 352 350 349 354 350 354 1 2 357 4 346 345 342
126 120 111 107 101 97 95 86 74 53 37 26 8 2 4 6 6 7 12 16 19 19 17 9 0 7 5 0 359 356 356 355 355 354 344 345 357 2 11 14 348 347 357
122 114 107 102 104 100 88 71 62 51 48 24 11 11 12 14 12 11 8 11 18 23 22 14 7 13 12 7 7 2 1 358 359 1 346 347 357 360 33 6 356 6 9
117 110 103 102 99 91 80 67 58 58 49 20 15 21 25 20 14 11 4 7 13 17 22 17 19 18 17 13 12 7 5 6 359 358 352 356 358 356 20 12 15 16 13
109 108 104 96 87 82 72 57 50 47 41 36 34 30 29 20 7 4 3 7 15 15 15 17 23 23 24 19 20 19 14 4 2 354 351 356 359 2 345 10 22 18 20
Wind_Speed_850mb
20 13 13 10 7 3 4 6 5 5 14 11 12 15 21 19 20 11 18 25 30 36 34 39 46 40 44 54 51 51 52 55 54 56 64 57 51 49 50 51 53 56 61
30 28 34 22 13 8 11 12 9 15 12 18 13 13 24 15 9 7 14 23 31 29 32 26 32 41 49 48 50 53 48 49 55 57 59 59 61 53 49 50 49 49 51
31 24 38 33 30 20 23 15 15 11 21 20 18 18 20 17 11 23 19 15 20 10 18 27 31 42 45 45 45 45 51 50 45 52 59 62 63 63 58 57 54 54 52
30 23 24 14 18 16 21 23 23 35 29 32 35 32 25 17 10 24 16 8 16 18 24 35 42 41 47 45 45 42 52 47 52 58 60 59 61 61 61 63 63 62 58
27 27 18 16 23 23 28 27 25 29 32 37 43 45 34 26 18 22 24 26 33 32 39 49 46 48 50 53 57 45 45 43 53 57 64 72 77 77 72 69 66 67 68
27 34 27 24 37 34 33 30 29 34 37 39 42 41 39 35 32 25 18 22 31 40 45 50 48 47 51 46 45 41 41 43 49 58 68 76 76 79 78 75 76 78 72
30 35 31 26 28 29 31 32 32 29 27 33 38 33 23 21 15 32 30 22 43 48 39 36 37 49 56 28 34 38 41 51 59 63 67 75 73 66 70 68 64 62 53
30 35 27 21 24 18 17 19 20 16 10 18 22 17 22 16 11 34 21 38 45 31 39 44 53 47 38 32 38 48 57 68 71 73 71 85 63 51 50 54 52 48 46
30 31 32 22 15 17 13 10 3 14 16 13 14 16 9 8 39 6 31 45 38 32 43 44 44 43 37 40 50 59 66 73 84 70 53 50 46 49 49 47 50 50 51
30 27 26 21 16 13 5 13 15 11 7 9 6 14 8 11 13 24 32 47 42 45 40 37 38 34 39 47 63 73 75 76 69 56 55 55 52 47 48 50 48 50 53
28 24 19 20 12 14 14 17 11 8 12 13 15 18 18 12 12 21 30 56 50 41 36 41 43 53 60 70 65 80 75 65 64 59 51 53 57 56 50 50 51 50 54
30 22 20 17 17 15 16 11 8 9 12 16 18 18 13 19 22 27 36 41 48 52 46 41 45 54 57 65 74 77 67 64 56 56 49 50 50 48 46 48 52 52 54
30 28 25 22 21 21 14 7 10 15 17 20 23 20 14 18 21 20 27 38 48 51 52 46 50 49 61 73 78 79 66 62 51 48 50 51 53 47 46 55 57 56 62
27 27 23 25 25 16 9 8 9 13 16 22 23 21 22 19 17 18 30 36 47 51 58 45 66 64 69 73 85 74 69 62 52 51 54 56 53 51 52 55 53 64 67
35 31 27 25 19 14 10 11 12 17 21 20 23 27 26 23 20 28 32 30 36 38 58 60 62 69 67 74 81 78 74 62 56 52 52 53 50 46 46 47 55 57 57
41 36 28 21 17 15 12 11 17 19 21 22 23 27 30 31 31 35 36 36 35 39 41 60 67 73 74 81 86 85 79 71 63 56 52 47 42 40 43 48 48 48 45
44 33 26 23 22 18 15 16 18 22 24 21 25 29 32 35 38 40 42 40 43 48 52 65 64 79 83 88 91 88 79 79 72 55 47 48 48 45 41 44 44 47 51
46 36 30 26 23 22 21 20 25 27 25 28 30 29 36 39 41 45 48 46 48 50 54 60 66 83 87 89 90 92 88 84 78 53 45 50 53 48 49 46 43 48 53
49 40 34 29 26 27 27 26 22 21 28 30 24 26 33 40 46 50 49 48 47 51 52 57 70 88 93 94 92 88 89 83 72 60 56 54 64 59 47 37 40 49 56
48 40 34 31 30 29 29 28 31 30 29 22 20 28 37 46 51 49 47 47 47 52 60 62 77 92 95 95 90 90 97 89 90 73 74 63 69 58 35 32 43 49 61
45 37 37 38 34 30 29 26 26 24 23 27 28 34 41 44 49 49 47 45 44 48 53 62 75 89 90 96 92 87 84 89 86 78 83 73 76 66 37 30 42 56 64
47 45 43 40 35 34 30 26 26 28 26 28 32 36 42 45 47 48 45 43 40 43 48 57 69 79 85 81 81 81 81 87 80 76 80 80 81 71 39 17 48 60 58
53 48 45 38 36 36 33 29 22 23 23 26 30 39 45 47 47 47 44 43 42 38 38 50 58 70 82 77 75 77 75 76 69 76 68 78 79 76 26 18 48 51 48
55 49 44 36 31 35 26 20 17 19 17 24 34 43 45 45 48 48 46 42 44 46 43 50 51 62 74 75 68 66 69 73 73 69 49 74 83 75 17 32 41 46 50
55 50 44 38 32 35 25 20 19 18 17 27 38 40 43 45 47 50 50 49 45 41 43 45 50 55 71 75 67 68 68 74 85 71 66 65 75 80 25 50 49 52 52
56 47 42 36 33 30 26 25 25 21 20 28 35 42 46 44 44 47 51 51 49 46 47 50 57 62 73 79 73 65 57 62 70 53 74 63 65 74 36 56 59 57 57
Wind_Direction_850mb
182 190 206 228 231 128 72 358 346 276 321 337 288 269 291 244 275 277 320 303 310 306 307 325 325 329 327 333 332 331 327 320 321 325 324 318 313 306 299 292 286 285 285
182 196 203 213 207 233 281 249 278 272 305 290 276 232 235 244 258 304 336 322 306 309 324 320 326 328 329 325 326 320 320 315 317 319 319 318 317 306 302 295 289 285 286
192 198 208 203 212 223 233 240 226 231 252 254 255 262 261 258 208 349 339 352 333 325 317 325 329 324 323 323 323 324 313 317 318 316 316 315 315 310 308 304 301 294 286
193 202 198 189 185 219 233 242 242 241 255 256 259 267 266 217 282 330 337 315 306 296 309 318 320 314 314 314 324 323 313 318 321 321 318 318 317 313 309 305 301 295 290
192 199 177 167 222 237 228 244 254 259 266 274 279 285 295 299 296 322 297 296 306 305 313 319 320 316 313 315 322 327 323 311 315 313 316 317 317 316 311 307 306 302 292
189 171 199 218 225 233 238 250 269 277 282 293 302 305 306 294 290 300 304 295 302 318 321 323 317 311 319 330 338 326 318 314 314 310 308 307 309 310 309 309 308 305 300
191 185 208 223 234 243 251 264 271 283 304 313 316 317 336 310 241 347 318 330 333 338 348 342 343 336 337 347 326 324 315 316 317 314 311 313 311 309 304 305 304 301 298
195 192 221 226 245 262 272 269 274 296 341 30 13 13 3 44 258 321 309 333 350 355 344 344 333 349 349 349 335 320 314 314 316 316 315 315 316 316 317 316 313 308 299
199 199 217 230 246 275 267 305 141 102 89 58 24 19 10 337 330 256 314 339 358 340 341 350 3 3 350 337 329 323 318 315 314 316 321 325 323 319 319 317 313 311 303
206 197 215 241 259 266 180 136 112 92 82 61 31 19 22 343 335 318 309 334 341 339 359 4 3 353 340 329 323 322 323 320 323 327 321 322 320 320 316 313 312 310 308
189 192 209 237 193 167 144 128 114 70 33 18 13 3 3 1 337 333 326 333 336 357 4 7 354 343 333 325 330 329 331 332 326 326 322 317 316 317 318 316 315 312 309
191 194 196 174 152 137 138 137 94 56 37 25 20 10 8 4 350 341 335 343 340 348 352 352 339 332 327 330 331 336 331 332 332 331 333 328 324 319 317 314 316 315 313
180 177 167 151 143 145 139 93 53 35 18 10 16 16 350 356 339 348 354 342 341 342 344 351 343 341 337 331 337 336 331 333 332 334 332 324 317 312 311 315 316 314 314
181 168 155 145 146 149 122 69 42 38 24 14 16 23 20 15 19 360 354 349 346 344 341 350 343 346 338 334 335 337 341 339 336 332 329 323 316 307 305 313 316 314 317
167 162 158 148 145 142 114 76 46 40 37 29 24 25 29 22 12 10 6 355 356 351 332 338 344 349 342 336 345 349 348 349 345 343 338 334 327 311 312 315 316 318 323
162 156 154 147 144 123 95 67 52 43 40 43 37 33 32 33 24 17 12 3 358 351 333 341 344 349 347 345 350 349 350 351 351 346 344 345 336 327 319 318 320 323 328
154 156 156 148 139 122 92 63 57 56 58 56 40 43 38 25 18 14 9 3 1 359 343 340 338 349 349 347 350 351 357 357 355 350 0 357 355 348 343 334 328 329 326
152 158 151 141 121 100 89 77 71 66 59 50 40 36 24 16 14 10 6 4 359 357 353 341 342 353 353 351 352 351 355 359 358 360 1 6 358 351 349 335 327 328 329
146 148 147 131 110 96 91 85 72 62 65 58 45 23 17 11 10 5 2 359 356 358 0 350 349 356 354 353 351 348 353 356 0 358 2 360 0 356 345 342 343 332 328
151 148 133 118 108 100 93 70 68 64 70 54 36 23 17 12 6 4 1 358 354 0 357 355 353 352 354 352 352 349 348 352 351 359 357 0 358 358 351 348 345 332 332
145 137 129 121 110 105 89 84 82 74 57 54 48 24 14 7 8 8 5 5 3 352 354 358 359 353 355 354 354 349 349 348 349 356 350 1 2 3 360 360 340 339 337
129 125 117 108 108 99 94 87 76 58 42 35 21 9 4 2 5 8 11 13 8 4 5 5 1 2 2 356 354 354 352 350 349 354 350 354 1 2 357 4 346 345 342
126 120 111 107 101 97 95 86 74 53 37 26 8 2 4 6 6 7 12 16 19 19 17 9 0 7 5 0 359 356 356 355 355 354 344 345 357 2 11 14 348 347 357
122 114 107 102 104 100 88 71 62 51 48 24 11 11 12 14 12 11 8 11 18 23 22 14 7 13 12 7 7 2 1 358 359 1 346 347 357 360 33 6 356 6 9
117 110 103 102 99 91 80 67 58 58 49 20 15 21 25 20 14 11 4 7 13 17 22 17 19 18 17 13 12 7 5 6 359 358 352 356 358 356 20 12 15 16 13
109 108 104 96 87 82 72 57 50 47 41 36 34 30 29 20 7 4 3 7 15 15 15 17 23 23 24 19 20 19 14 4 2 354 351 356 359 2 345 10 22 18 20